星链-30338 (STARLINK-30338 )

导读

STARLINK-30338是美国SpaceX公司星链(Starlink)项目的低轨通信卫星,于2023年8月27日发射入轨,属于全球大规模卫星互联网星座的组成部分。 它采用扁平化设计减轻重量,搭载光学激光链路和多频段相控阵天线,通过氩离子推进系统调整轨道,可提供高速低延迟的宽带互联网接入,服务覆盖全球偏远区域,助力星链构建天地一体化网络。

Basic Information
目录编号:
57718
目录名称:
STARLINK-30338
国际标识:
2023-129W
轨道中心:
EARTH
卫星名称:
星链-30338
卫星全名:
星链-30338 (STARLINK-30338 )
卫星状态:
在轨 (已飞行1026 天)
发射日期:
2023-08-27 UTC
国别 :
美国 (US)
星等 :
--
Orbit Information
数据来源 国际轨道数据 AOE轨道数据
星历时间 2026-06-16T21:58:30+0800
2天前
查看轨道信息
2026-06-16T11:00:00+0800
2天前
查看轨道信息
半长轴 6861.156km 6861.155km
偏心率 0.0001189 0.0001475
轨道倾角 43.007° 43.008°
近地点辐角 235.357° 263.289°
升交点赤经 279.688° 282.281°
平近点角 124.717° 98.985°
近地点 482.203km 482.005km
远地点 483.835km 484.031km
周期 94.266分钟 94.266分钟
每日圈数 15.275901 15.275905
Detailed Information
固有亮度:
5
最大亮度:
0.3
卫星平台:
Starlink v2.0 mini
覆盖范围:
全球
运营商:
太空探索技术公司
运营商所在国:
美国
制造商(研发单位):
太空探索技术公司
制造商所在国:
美国
使用方式:
暂无
Satellite Introduction
星链(Starlink)计划是由太空探索技术公司(SpaceX)提出的一个巨型低轨卫星互联网星座项目,计划在2019年至2024年间在太空搭建由约1.2万颗卫星组成的“星链”网络,其中1584颗将部署在地球上空550千米处的近地轨道,并从2020年开始工作。该卫星仍在工作。
2D Orbit Map
3D Orbit Map
Orbit Altitude Analysis Chart
Orbit Inclination Analysis Chart
Orbit Comprehensive Analysis Chart
View Comprehensive Chart